Weather History for Superior, WI

Change the Weather History Date:

Thursday, April 10, 2014

  Actual Average Record
Temperature  
Mean Temperature 45 °F -  
Max Temperature 51 °F 45 °F 81 °F (1955)
Min Temperature 38 °F 28 °F 14 °F (1956)
Degree Days  
Heating Degree Days 20    
Moisture  
Dew Point 27 °F    
Average Humidity 51    
Maximum Humidity 75    
Minimum Humidity 31    
Precipitation  
Precipitation 0.00 in - - ()
Sea Level Pressure  
Sea Level Pressure 29.69 in    
Wind  
Wind Speed 12 mph (West)    
Max Wind Speed 28 mph    
Max Gust Speed 36 mph    
Visibility 10 miles    
Events      
Averages and records for this station are not official NWS values.
T = Trace of Precipitation, MM = Missing Value Source: NWS Daily Summary

Daily Weather History Graph

Daily Weather History Graph

Search for Another Location

Airport:

Trip Planner

Search our weather history database for the weather conditions in past years. The results will help you decide how hot, cold, wet, or windy it might be!

Date:

Astronomy

Apr. 10, 2014 Rise Set
Actual Time 6:30 AM CDT 7:49 PM CDT
Civil Twilight 5:59 AM CDT 8:21 PM CDT
Nautical Twilight 5:21 AM CDT 8:59 PM CDT
Astronomical Twilight 4:41 AM CDT 9:39 PM CDT
Moon 3:19 PM CDT (4/10) 4:09 AM CDT (4/10)
Length of Visible Light 14h 22m
Length of Day
13h 19m
Waxing Gibbous, 80% of the Moon is Illuminated
Apr 10
Waxing Gibbous
Apr 15
Full
Apr 22
Last Quarter
Apr 29
New
May 6
First Quarter

Hourly Weather History & Observations

Time (CDT) Temp. Windchill Dew Point Humidity Pressure Visibility Wind Dir Wind Speed Gust Speed Precip Events Conditions
12:15 AM 49.1 °F - 39.0 °F 68% 29.46 in 10.0 mi WNW 9.2 mph - N/A   Scattered Clouds
12:35 AM 48.2 °F - 39.7 °F 73% 29.48 in 10.0 mi NW 11.5 mph - N/A   Clear
12:55 AM 46.4 °F 40.1 °F 39.0 °F 75% 29.49 in 10.0 mi NW 15.0 mph - N/A   Clear
1:15 AM 46.6 °F - 37.6 °F 71% 29.51 in 10.0 mi NW 9.2 mph 23.0 mph N/A   Clear
1:35 AM 45.3 °F 38.1 °F 36.7 °F 72% 29.53 in 10.0 mi NW 17.3 mph 21.9 mph N/A   Clear
1:55 AM 44.8 °F 39.0 °F 35.8 °F 71% 29.55 in 10.0 mi WNW 11.5 mph 17.3 mph N/A   Scattered Clouds
2:15 AM 44.6 °F 38.4 °F 35.4 °F 70% 29.56 in 10.0 mi WNW 12.7 mph 18.4 mph N/A   Clear
2:35 AM 44.1 °F 37.7 °F 34.7 °F 70% 29.56 in 10.0 mi WNW 12.7 mph 19.6 mph N/A   Clear
2:55 AM 43.5 °F 38.3 °F 33.6 °F 68% 29.56 in 10.0 mi West 9.2 mph - N/A   Clear
3:15 AM 44.1 °F 39.5 °F 33.3 °F 66% 29.55 in 10.0 mi West 8.1 mph - N/A   Clear
3:35 AM 43.2 °F 38.4 °F 32.5 °F 66% 29.57 in 10.0 mi West 8.1 mph - N/A   Clear
3:55 AM 43.3 °F 38.6 °F 32.0 °F 64% 29.59 in 10.0 mi West 8.1 mph - N/A   Clear
4:15 AM 43.2 °F 38.4 °F 32.0 °F 65% 29.58 in 10.0 mi West 8.1 mph - N/A   Clear
4:35 AM 42.6 °F 38.4 °F 31.6 °F 65% 29.58 in 10.0 mi West 6.9 mph - N/A   Clear
4:55 AM 41.9 °F 36.9 °F 31.1 °F 66% 29.59 in 10.0 mi WSW 8.1 mph - N/A   Clear
5:15 AM 41.9 °F 37.5 °F 30.4 °F 64% 29.58 in 10.0 mi WSW 6.9 mph - N/A   Clear
5:35 AM 41.4 °F 35.7 °F 30.7 °F 66% 29.58 in 10.0 mi SW 9.2 mph - N/A   Clear
5:55 AM 40.1 °F 34.7 °F 30.9 °F 70% 29.59 in 10.0 mi SW 8.1 mph - N/A   Clear
6:15 AM 41.0 °F 36.4 °F 30.2 °F 65% 29.60 in 10.0 mi WSW 6.9 mph - N/A   Clear
6:35 AM 41.0 °F 35.2 °F 29.8 °F 64% 29.60 in 10.0 mi WSW 9.2 mph - N/A   Clear
6:55 AM 40.6 °F 36.7 °F 29.3 °F 64% 29.61 in 10.0 mi SW 5.8 mph - N/A   Clear
7:15 AM 39.4 °F 33.8 °F 29.7 °F 68% 29.61 in 10.0 mi SW 8.1 mph - N/A   Clear
7:35 AM 40.1 °F 33.6 °F 29.3 °F 65% 29.61 in 10.0 mi WSW 10.4 mph - N/A   Clear
7:55 AM 41.4 °F 35.2 °F 28.9 °F 61% 29.61 in 10.0 mi WSW 10.4 mph - N/A   Clear
8:15 AM 42.3 °F 35.9 °F 28.4 °F 58% 29.61 in 10.0 mi WSW 11.5 mph 18.4 mph N/A   Clear
8:35 AM 43.3 °F 37.2 °F 28.2 °F 55% 29.61 in 10.0 mi West 11.5 mph - N/A   Clear
8:55 AM 44.2 °F 38.8 °F 27.9 °F 53% 29.61 in 10.0 mi West 10.4 mph 20.7 mph N/A   Clear
9:15 AM 44.8 °F 38.0 °F 26.6 °F 49% 29.61 in 10.0 mi West 15.0 mph 21.9 mph N/A   Clear
9:35 AM 45.0 °F 37.1 °F 26.6 °F 49% 29.62 in 10.0 mi WNW 19.6 mph 25.3 mph N/A   Clear
9:55 AM 45.0 °F 37.1 °F 26.8 °F 49% 29.62 in 10.0 mi WNW 19.6 mph 32.2 mph N/A   Clear
10:15 AM 45.0 °F 37.9 °F 27.3 °F 50% 29.63 in 10.0 mi WNW 16.1 mph 31.1 mph N/A   Clear
10:35 AM 45.1 °F 37.3 °F 27.3 °F 50% 29.65 in 10.0 mi WNW 19.6 mph 31.1 mph N/A   Clear
10:55 AM 45.3 °F 37.6 °F 27.1 °F 49% 29.66 in 10.0 mi WNW 19.6 mph 33.4 mph N/A   Clear
11:15 AM 45.7 °F 37.8 °F 27.5 °F 49% 29.67 in 10.0 mi WNW 20.7 mph 28.8 mph N/A   Clear
11:35 AM 45.7 °F 37.4 °F 27.5 °F 49% 29.67 in 10.0 mi WNW 23.0 mph 32.2 mph N/A   Clear
11:55 AM 45.9 °F 39.1 °F 28.2 °F 50% 29.68 in 10.0 mi NW 16.1 mph 25.3 mph N/A   Clear
12:15 PM 46.8 °F - 27.0 °F 46% 29.69 in 10.0 mi WNW 23.0 mph 28.8 mph N/A   Clear
12:35 PM 46.4 °F 38.7 °F 27.1 °F 47% 29.69 in 10.0 mi WNW 20.7 mph 29.9 mph N/A   Clear
12:55 PM 47.5 °F - 26.8 °F 45% 29.70 in 10.0 mi WNW 23.0 mph 28.8 mph N/A   Clear
1:15 PM 48.2 °F - 25.9 °F 42% 29.70 in 10.0 mi West 19.6 mph 27.6 mph N/A   Clear
1:55 PM 48.6 °F - 25.2 °F 40% 29.71 in 10.0 mi WNW 13.8 mph 27.6 mph N/A   Clear
2:15 PM 49.6 °F - 23.4 °F 36% 29.71 in 10.0 mi WNW 17.3 mph 33.4 mph N/A   Clear
2:35 PM 49.6 °F - 22.6 °F 35% 29.72 in 10.0 mi WNW 17.3 mph 27.6 mph N/A   Clear
2:55 PM 49.8 °F - 22.1 °F 34% 29.72 in 10.0 mi WNW 17.3 mph 31.1 mph N/A   Clear
3:15 PM 50.0 °F - 20.8 °F 32% 29.73 in 10.0 mi WNW 17.3 mph 28.8 mph N/A   Clear
3:35 PM 50.9 °F - 21.2 °F 31% 29.73 in 10.0 mi WNW 17.3 mph 25.3 mph N/A   Clear
3:55 PM 51.1 °F - 21.6 °F 31% 29.73 in 10.0 mi WNW 16.1 mph 24.2 mph N/A   Clear
4:15 PM 50.9 °F - 21.0 °F 31% 29.74 in 10.0 mi NW 25.3 mph 34.5 mph N/A   Scattered Clouds
4:35 PM 49.6 °F - 21.7 °F 33% 29.75 in 10.0 mi NW 27.6 mph 35.7 mph N/A   Scattered Clouds
4:55 PM 49.6 °F - 21.7 °F 33% 29.76 in 10.0 mi NW 21.9 mph 28.8 mph N/A   Scattered Clouds
5:15 PM 50.2 °F - 21.7 °F 33% 29.76 in 10.0 mi WNW 20.7 mph 29.9 mph N/A   Clear
5:35 PM 50.2 °F - 22.5 °F 34% 29.77 in 10.0 mi NW 20.7 mph 26.5 mph N/A   Clear
5:55 PM 50.0 °F - 22.1 °F 33% 29.78 in 10.0 mi WNW 24.2 mph - N/A   Clear
6:15 PM 49.5 °F - 22.3 °F 34% 29.79 in 10.0 mi WNW 19.6 mph 24.2 mph N/A   Clear
6:35 PM 49.8 °F - 22.3 °F 34% 29.79 in 10.0 mi WNW 15.0 mph 26.5 mph N/A   Clear
6:55 PM 49.3 °F - 22.6 °F 35% 29.80 in 10.0 mi WNW 15.0 mph 23.0 mph N/A   Clear
7:15 PM 47.8 °F - 23.5 °F 39% 29.80 in 10.0 mi NW 12.7 mph 17.3 mph N/A   Clear
7:35 PM 47.5 °F - 23.4 °F 39% 29.80 in 10.0 mi WNW 8.1 mph - N/A   Clear
7:55 PM 47.1 °F - 23.0 °F 39% 29.81 in 10.0 mi West 5.8 mph - N/A   Clear
8:15 PM 46.9 °F - 22.8 °F 39% 29.82 in 10.0 mi West 4.6 mph - N/A   Clear
8:35 PM 41.7 °F - 23.7 °F 49% 29.83 in 10.0 mi Calm Calm - N/A   Clear
8:55 PM 42.1 °F - 24.3 °F 49% 29.84 in 10.0 mi Calm Calm - N/A   Clear
9:15 PM 40.8 °F 36.9 °F 24.1 °F 51% 29.86 in 10.0 mi WNW 5.8 mph - N/A   Scattered Clouds
9:35 PM 42.4 °F 39.6 °F 24.8 °F 50% 29.87 in 10.0 mi WNW 4.6 mph - N/A   Overcast
9:55 PM 44.6 °F 43.1 °F 23.5 °F 44% 29.87 in 10.0 mi WSW 3.5 mph - N/A   Overcast
10:15 PM 42.1 °F 40.2 °F 24.1 °F 49% 29.87 in 10.0 mi West 3.5 mph - N/A   Mostly Cloudy
10:35 PM 41.4 °F 37.6 °F 24.6 °F 51% 29.87 in 10.0 mi SW 5.8 mph - N/A   Scattered Clouds
10:55 PM 42.4 °F 39.6 °F 23.9 °F 48% 29.87 in 10.0 mi SW 4.6 mph - N/A   Mostly Cloudy
11:15 PM 41.2 °F 37.3 °F 24.4 °F 51% 29.88 in 10.0 mi SW 5.8 mph - N/A   Mostly Cloudy
11:35 PM 39.6 °F 34.7 °F 24.1 °F 54% 29.88 in 10.0 mi SW 6.9 mph - N/A   Mostly Cloudy
11:55 PM 38.8 °F 34.6 °F 23.9 °F 55% 29.88 in 10.0 mi SW 5.8 mph - N/A   Mostly Cloudy